EZY5618 LPFR-EGNT

Flight info

Callsign EZY5618
Flight time 2h 38m
Altitude 34000
Route ELVAR DCT BABOV DCT BARDI DCT ZMR DCT NUBLO DCT RONSI DCT DELOG DCT NOVAN DCT TERKU DCT NOZHU/N0436F350 DCT BHD DCT WIGGU DCT AZCAL DCT AVTIC DCT ANJAK/N0438F360 N38 NOKIN UP17 POL
Aircraft A320/M-SDE3FGHIRWY/LB1

Departure

Time 2026-04-26 22:07
Airport Faro - Gago Coutinho International Airport (LPFR)

Arrival

Time 2026-04-27 00:46
Airport Newcastle International Airport (EGNT)
Time Latitude Longitude Altitude Speed Heading
2026-04-26 21:50 37.01899 -7.96694 20 ft 0 kts
2026-04-26 21:52 37.01908 -7.96770 20 ft 0 kts
2026-04-26 22:00 37.01907 -7.96770 20 ft 2 kts
2026-04-26 22:01 37.01881 -7.96775 23 ft 4 kts
2026-04-26 22:01 37.01858 -7.96780 22 ft 2 kts
2026-04-26 22:01 37.01835 -7.96788 22 ft 4 kts 44°
2026-04-26 22:01 37.01827 -7.96813 22 ft 3 kts 100°
2026-04-26 22:02 37.01830 -7.96833 24 ft 3 kts 100°
2026-04-26 22:02 37.01830 -7.96837 24 ft 0 kts 100°
2026-04-26 22:04 37.01827 -7.96816 22 ft 12 kts 100°
2026-04-26 22:04 37.01799 -7.96616 20 ft 29 kts 100°
2026-04-26 22:04 37.01754 -7.96521 20 ft 5 kts 178°
2026-04-26 22:04 37.01666 -7.96537 20 ft 23 kts 185°
2026-04-26 22:05 37.01599 -7.96390 22 ft 22 kts 101°
2026-04-26 22:05 37.01569 -7.96203 21 ft 23 kts 101°
2026-04-26 22:05 37.01544 -7.96004 20 ft 24 kts 99°
2026-04-26 22:05 37.01472 -7.95838 20 ft 22 kts 171°
2026-04-26 22:06 37.01346 -7.95899 20 ft 16 kts 258°
2026-04-26 22:06 37.01370 -7.96051 20 ft 24 kts 281°
2026-04-26 22:06 37.01438 -7.96581 21 ft 97 kts 277°
2026-04-26 22:06 37.01594 -7.97659 21 ft 153 kts 280°
2026-04-26 22:07 37.01785 -7.99000 539 ft 153 kts 279°
2026-04-26 22:07 37.01983 -8.00309 1118 ft 153 kts 280°
2026-04-26 22:07 37.02186 -8.01682 1438 ft 170 kts 281°
2026-04-26 22:07 37.02416 -8.03245 1681 ft 194 kts 281°
2026-04-26 22:08 37.02674 -8.05002 1952 ft 216 kts 281°
2026-04-26 22:08 37.02950 -8.06884 2551 ft 223 kts 281°
2026-04-26 22:08 37.03232 -8.08812 3202 ft 228 kts 281°
2026-04-26 22:08 37.03595 -8.10773 3806 ft 234 kts 297°
2026-04-26 22:09 37.04662 -8.12249 4358 ft 233 kts 337°
2026-04-26 22:09 37.06264 -8.12628 4645 ft 244 kts
2026-04-26 22:09 37.08016 -8.12359 5088 ft 260 kts 14°
2026-04-26 22:09 37.09812 -8.11950 5846 ft 264 kts 16°
2026-04-26 22:10 37.11623 -8.11520 6656 ft 267 kts 16°
2026-04-26 22:10 37.13463 -8.11093 7404 ft 271 kts 15°
2026-04-26 22:10 37.15309 -8.10685 8139 ft 276 kts 14°
2026-04-26 22:10 37.17217 -8.10282 8895 ft 280 kts 13°
2026-04-26 22:11 37.19158 -8.09888 9631 ft 285 kts 13°
2026-04-26 22:11 37.21138 -8.09493 10278 ft 293 kts 13°
2026-04-26 22:11 37.23178 -8.08825 10463 ft 314 kts 20°
2026-04-26 22:11 37.25330 -8.07948 10679 ft 334 kts 21°
2026-04-26 22:12 37.27559 -8.06992 11196 ft 342 kts 21°
2026-04-26 22:12 37.29829 -8.06005 11824 ft 347 kts 21°
2026-04-26 22:12 37.32127 -8.05004 12477 ft 352 kts 20°
2026-04-26 22:12 37.34459 -8.03997 13124 ft 356 kts 20°
2026-04-26 22:13 37.36825 -8.02984 13757 ft 361 kts 19°
2026-04-26 22:13 37.39224 -8.01963 14309 ft 366 kts 19°
2026-04-26 22:13 37.41615 -8.00948 14879 ft 369 kts 19°
2026-04-26 22:13 37.44061 -7.99911 15448 ft 372 kts 19°
2026-04-26 22:14 37.46529 -7.98865 16027 ft 375 kts 19°
2026-04-26 22:14 37.49014 -7.97810 16608 ft 378 kts 19°
2026-04-26 22:14 37.51521 -7.96745 17177 ft 381 kts 19°
2026-04-26 22:14 37.54050 -7.95670 17748 ft 385 kts 19°
2026-04-26 22:15 37.56600 -7.94586 18308 ft 388 kts 19°
2026-04-26 22:15 37.59174 -7.93490 18789 ft 391 kts 19°
2026-04-26 22:15 37.61730 -7.92397 19274 ft 394 kts 19°
2026-04-26 22:15 37.64337 -7.91279 19749 ft 397 kts 19°
2026-04-26 22:16 37.66966 -7.90150 20229 ft 401 kts 19°
2026-04-26 22:16 37.69622 -7.89013 20718 ft 404 kts 19°
2026-04-26 22:16 37.72294 -7.87873 21213 ft 406 kts 19°
2026-04-26 22:16 37.74988 -7.86723 21698 ft 409 kts 18°
2026-04-26 22:17 37.77694 -7.85562 22162 ft 412 kts 18°
2026-04-26 22:17 37.80422 -7.84389 22612 ft 415 kts 18°
2026-04-26 22:17 37.83167 -7.83208 23074 ft 418 kts 18°
2026-04-26 22:17 37.85933 -7.82019 23524 ft 421 kts 18°
2026-04-26 22:18 37.88724 -7.80819 23893 ft 424 kts 18°
2026-04-26 22:18 37.91485 -7.79631 24255 ft 426 kts 18°
2026-04-26 22:18 37.94296 -7.78422 24621 ft 428 kts 18°
2026-04-26 22:18 37.97116 -7.77205 25002 ft 429 kts 18°
2026-04-26 22:19 37.99949 -7.75980 25359 ft 430 kts 18°
2026-04-26 22:19 38.02791 -7.74750 25694 ft 432 kts 18°
2026-04-26 22:19 38.05647 -7.73514 26036 ft 434 kts 18°
2026-04-26 22:19 38.08513 -7.72272 26358 ft 436 kts 18°
2026-04-26 22:20 38.11401 -7.71023 26680 ft 438 kts 18°
2026-04-26 22:20 38.14292 -7.69771 26995 ft 440 kts 18°
2026-04-26 22:20 38.17202 -7.68510 27308 ft 442 kts 18°
2026-04-26 22:20 38.20119 -7.67245 27604 ft 444 kts 18°
2026-04-26 22:21 38.23058 -7.65970 27902 ft 446 kts 18°
2026-04-26 22:21 38.25967 -7.64706 28184 ft 448 kts 18°
2026-04-26 22:21 38.28930 -7.63415 28470 ft 450 kts 18°
2026-04-26 22:21 38.31904 -7.62116 28749 ft 452 kts 18°
2026-04-26 22:22 38.34883 -7.60814 29027 ft 454 kts 18°
2026-04-26 22:22 38.37887 -7.59502 29299 ft 455 kts 17°
2026-04-26 22:22 38.40890 -7.58192 29582 ft 457 kts 17°
2026-04-26 22:22 38.43906 -7.56876 29829 ft 458 kts 17°
2026-04-26 22:23 38.46926 -7.55554 30060 ft 460 kts 17°
2026-04-26 22:23 38.49925 -7.54235 30264 ft 462 kts 17°
2026-04-26 22:23 38.53003 -7.52879 30466 ft 463 kts 17°
2026-04-26 22:23 38.56058 -7.51536 30675 ft 464 kts 17°
2026-04-26 22:24 38.59106 -7.50198 30957 ft 462 kts 17°
2026-04-26 22:24 38.62142 -7.48870 31250 ft 461 kts 17°
2026-04-26 22:24 38.65182 -7.47540 31518 ft 461 kts 17°
2026-04-26 22:24 38.68172 -7.46229 31802 ft 459 kts 17°
2026-04-26 22:25 38.71196 -7.44896 32096 ft 458 kts 17°
2026-04-26 22:25 38.74206 -7.43569 32382 ft 457 kts 17°
2026-04-26 22:25 38.77212 -7.42239 32659 ft 456 kts 17°
2026-04-26 22:25 38.80208 -7.40910 32928 ft 456 kts 17°
2026-04-26 22:26 38.83204 -7.39580 33200 ft 455 kts 17°
2026-04-26 22:26 38.86195 -7.38255 33467 ft 454 kts 17°
2026-04-26 22:26 38.89181 -7.36933 33741 ft 453 kts 17°
2026-04-26 22:26 38.92158 -7.35613 33977 ft 454 kts 17°
2026-04-26 22:27 38.98103 -7.32969 34040 ft 449 kts 17°
2026-04-26 22:27 39.04005 -7.30341 34043 ft 448 kts 17°
2026-04-26 22:28 39.09864 -7.27737 34046 ft 448 kts 17°
2026-04-26 22:28 39.15758 -7.25107 34045 ft 448 kts 17°
2026-04-26 22:29 39.21669 -7.22462 34048 ft 449 kts 17°
2026-04-26 22:29 39.27472 -7.19606 34058 ft 449 kts 20°
2026-04-26 22:30 39.33229 -7.16471 34058 ft 449 kts 21°
2026-04-26 22:30 39.38989 -7.13319 34066 ft 448 kts 20°
2026-04-26 22:31 39.44757 -7.10243 34063 ft 448 kts 20°
2026-04-26 22:31 39.50540 -7.07195 34059 ft 448 kts 20°
2026-04-26 22:32 39.56280 -7.04155 34063 ft 448 kts 20°
2026-04-26 22:32 39.62051 -7.01081 34064 ft 449 kts 20°
2026-04-26 22:33 39.70722 -6.96445 34053 ft 449 kts 20°
2026-04-26 22:34 39.76511 -6.93342 34059 ft 449 kts 20°
2026-04-26 22:34 39.82295 -6.90239 34058 ft 449 kts 20°
2026-04-26 22:35 39.88010 -6.87017 34062 ft 451 kts 27°
2026-04-26 22:35 39.93382 -6.82775 34067 ft 452 kts 30°
2026-04-26 22:36 39.98744 -6.78488 34064 ft 451 kts 30°
2026-04-26 22:36 40.04101 -6.74197 34073 ft 451 kts 30°
2026-04-26 22:37 40.09465 -6.69895 34073 ft 452 kts 30°
2026-04-26 22:37 40.14830 -6.65573 34080 ft 453 kts 30°
2026-04-26 22:38 40.20198 -6.61235 34086 ft 454 kts 30°
2026-04-26 22:38 40.25538 -6.56920 34086 ft 454 kts 30°
2026-04-26 22:39 40.30916 -6.52579 34103 ft 454 kts 31°
2026-04-26 22:39 40.36296 -6.48229 34106 ft 454 kts 31°
2026-04-26 22:40 40.41668 -6.43865 34119 ft 453 kts 31°
2026-04-26 22:40 40.47020 -6.39503 34126 ft 452 kts 31°
2026-04-26 22:41 40.52327 -6.35168 34128 ft 451 kts 31°
2026-04-26 22:41 40.57668 -6.30797 34133 ft 451 kts 31°
2026-04-26 22:42 40.63112 -6.26713 34131 ft 450 kts 26°
2026-04-26 22:42 40.68659 -6.23011 34132 ft 450 kts 25°
2026-04-26 22:43 40.74242 -6.19286 34136 ft 450 kts 26°
2026-04-26 22:43 40.79793 -6.15466 34122 ft 450 kts 26°
2026-04-26 22:44 40.85341 -6.11592 34114 ft 451 kts 27°
2026-04-26 22:44 40.90885 -6.07714 34127 ft 451 kts 27°
2026-04-26 22:45 40.96437 -6.03843 34134 ft 450 kts 27°
2026-04-26 22:45 41.01980 -5.99976 34137 ft 450 kts 27°
2026-04-26 22:46 41.07497 -5.96130 34137 ft 450 kts 27°
2026-04-26 22:46 41.13041 -5.92241 34136 ft 450 kts 27°
2026-04-26 22:47 41.18578 -5.88346 34138 ft 450 kts 27°
2026-04-26 22:47 41.24117 -5.84449 34139 ft 450 kts 27°
2026-04-26 22:48 41.29609 -5.80572 34134 ft 449 kts 27°
2026-04-26 22:48 41.35131 -5.76665 34134 ft 449 kts 27°
2026-04-26 22:49 41.40648 -5.72758 34128 ft 449 kts 27°
2026-04-26 22:49 41.45232 -5.69501 34126 ft 449 kts 26°
2026-04-26 22:50 41.50763 -5.65581 34120 ft 450 kts 26°
2026-04-26 22:50 41.56435 -5.62054 34117 ft 450 kts 21°
2026-04-26 22:51 41.62204 -5.58802 34119 ft 450 kts 21°
2026-04-26 22:51 41.67985 -5.55545 34119 ft 451 kts 21°
2026-04-26 22:52 41.73773 -5.52276 34124 ft 451 kts 21°
2026-04-26 22:52 41.79561 -5.48993 34127 ft 452 kts 21°
2026-04-26 22:53 41.85349 -5.45704 34127 ft 452 kts 21°
2026-04-26 22:53 41.91104 -5.42436 34138 ft 452 kts 21°
2026-04-26 22:54 41.96892 -5.39137 34139 ft 452 kts 21°
2026-04-26 22:54 42.02682 -5.35833 34137 ft 452 kts 21°
2026-04-26 22:55 42.08472 -5.32522 34148 ft 452 kts 21°
2026-04-26 22:55 42.14264 -5.29206 34136 ft 453 kts 21°
2026-04-26 22:56 42.20066 -5.25876 34136 ft 453 kts 21°
2026-04-26 22:56 42.25876 -5.22530 34139 ft 454 kts 21°
2026-04-26 22:57 42.31688 -5.19185 34150 ft 454 kts 21°
2026-04-26 22:57 42.37496 -5.15834 34148 ft 454 kts 21°
2026-04-26 22:58 42.43311 -5.12458 34150 ft 455 kts 21°
2026-04-26 22:58 42.49088 -5.09102 34157 ft 455 kts 21°
2026-04-26 22:59 42.54910 -5.05722 34162 ft 455 kts 21°
2026-04-26 22:59 42.60727 -5.02335 34167 ft 455 kts 21°
2026-04-26 23:00 42.66551 -4.98932 34165 ft 455 kts 21°
2026-04-26 23:00 42.72368 -4.95529 34169 ft 455 kts 21°
2026-04-26 23:01 42.78191 -4.92116 34179 ft 455 kts 22°
2026-04-26 23:01 42.83998 -4.88696 34183 ft 455 kts 22°
2026-04-26 23:02 42.89806 -4.85284 34189 ft 455 kts 22°
2026-04-26 23:02 42.95622 -4.81857 34196 ft 455 kts 22°
2026-04-26 23:03 43.01433 -4.78417 34190 ft 455 kts 22°
2026-04-26 23:03 43.07239 -4.74979 34189 ft 455 kts 22°
2026-04-26 23:04 43.13051 -4.71535 34191 ft 455 kts 22°
2026-04-26 23:04 43.18818 -4.68107 34192 ft 455 kts 22°
2026-04-26 23:05 43.24626 -4.64647 34185 ft 455 kts 22°
2026-04-26 23:05 43.30434 -4.61179 34190 ft 456 kts 22°
2026-04-26 23:06 43.36255 -4.57691 34196 ft 456 kts 22°
2026-04-26 23:06 43.42069 -4.54199 34198 ft 456 kts 22°
2026-04-26 23:07 43.47849 -4.50726 34204 ft 455 kts 22°
2026-04-26 23:07 43.53655 -4.47234 34207 ft 455 kts 22°
2026-04-26 23:08 43.59473 -4.43722 34209 ft 456 kts 22°
2026-04-26 23:08 43.65276 -4.40205 34203 ft 456 kts 22°
2026-04-26 23:09 43.71096 -4.36678 34200 ft 456 kts 22°
2026-04-26 23:09 43.76914 -4.33150 34214 ft 456 kts 21°
2026-04-26 23:10 43.82695 -4.29637 34201 ft 457 kts 21°
2026-04-26 23:10 43.88522 -4.26089 34199 ft 457 kts 22°
2026-04-26 23:11 43.94350 -4.22521 34205 ft 458 kts 22°
2026-04-26 23:11 44.00175 -4.18943 34206 ft 458 kts 21°
2026-04-26 23:12 44.06019 -4.15354 34193 ft 459 kts 21°
2026-04-26 23:12 44.11873 -4.11760 34198 ft 460 kts 21°
2026-04-26 23:13 44.17728 -4.08148 34203 ft 461 kts 21°
2026-04-26 23:13 44.23569 -4.04538 34188 ft 463 kts 21°
2026-04-26 23:14 44.29461 -4.00880 34184 ft 464 kts 21°
2026-04-26 23:14 44.32495 -3.99392 34188 ft 460 kts
2026-04-26 23:14 44.35653 -3.98882 34200 ft 455 kts 358°
2026-04-26 23:15 44.41984 -3.98582 34187 ft 456 kts 358°
2026-04-26 23:15 44.48339 -3.98342 34190 ft 457 kts 358°
2026-04-26 23:16 44.54710 -3.98110 34211 ft 458 kts 358°
2026-04-26 23:16 44.61100 -3.97872 34202 ft 459 kts 358°
2026-04-26 23:17 44.67491 -3.97621 34208 ft 460 kts 358°
2026-04-26 23:17 44.73853 -3.97370 34206 ft 460 kts 358°
2026-04-26 23:18 44.80256 -3.97130 34209 ft 460 kts 358°
2026-04-26 23:18 44.86661 -3.96887 34207 ft 460 kts 358°
2026-04-26 23:19 44.93068 -3.96636 34222 ft 461 kts 358°
2026-04-26 23:19 44.99491 -3.96384 34204 ft 461 kts 358°
2026-04-26 23:20 45.05915 -3.96139 34203 ft 462 kts 358°
2026-04-26 23:20 45.12343 -3.95881 34212 ft 462 kts 358°
2026-04-26 23:21 45.18786 -3.95626 34198 ft 464 kts 358°
2026-04-26 23:21 45.25245 -3.95375 34196 ft 465 kts 358°
2026-04-26 23:22 45.31677 -3.95127 34228 ft 466 kts 358°
2026-04-26 23:22 45.38172 -3.94876 34206 ft 467 kts 357°
2026-04-26 23:23 45.44683 -3.94621 34206 ft 468 kts 357°
2026-04-26 23:23 45.51204 -3.94366 34218 ft 469 kts 358°
2026-04-26 23:24 45.57744 -3.94103 34205 ft 470 kts 357°
2026-04-26 23:24 45.64236 -3.93856 34204 ft 470 kts 357°
2026-04-26 23:25 45.70772 -3.93599 34222 ft 470 kts 358°
2026-04-26 23:25 45.77319 -3.93320 34203 ft 471 kts 358°
2026-04-26 23:26 45.83868 -3.93059 34198 ft 470 kts 357°
2026-04-26 23:26 45.90411 -3.92805 34228 ft 470 kts 358°
2026-04-26 23:27 45.96960 -3.92537 34219 ft 471 kts 357°
2026-04-26 23:27 46.03520 -3.92264 34211 ft 472 kts 357°
2026-04-26 23:28 46.10084 -3.92005 34207 ft 472 kts 357°
2026-04-26 23:28 46.16669 -3.91741 34214 ft 473 kts 357°
2026-04-26 23:29 46.23260 -3.91468 34211 ft 474 kts 357°
2026-04-26 23:29 46.29821 -3.91203 34214 ft 474 kts 357°
2026-04-26 23:30 46.36429 -3.90934 34226 ft 475 kts 357°
2026-04-26 23:30 46.43048 -3.90670 34222 ft 476 kts 357°
2026-04-26 23:31 46.49672 -3.90390 34223 ft 476 kts 357°
2026-04-26 23:31 46.56307 -3.90117 34231 ft 477 kts 357°
2026-04-26 23:32 46.62898 -3.89854 34234 ft 477 kts 357°
2026-04-26 23:32 46.69540 -3.89580 34231 ft 477 kts 357°
2026-04-26 23:33 46.76184 -3.89300 34225 ft 477 kts 357°
2026-04-26 23:33 46.82822 -3.89025 34225 ft 477 kts 357°
2026-04-26 23:34 46.89462 -3.88749 34224 ft 477 kts 357°
2026-04-26 23:34 46.96101 -3.88478 34240 ft 477 kts 357°
2026-04-26 23:35 47.02689 -3.88204 34231 ft 477 kts 357°
2026-04-26 23:35 47.09331 -3.87924 34226 ft 477 kts 357°
2026-04-26 23:36 47.15967 -3.87657 34233 ft 478 kts 357°
2026-04-26 23:36 47.22616 -3.87381 34227 ft 477 kts 357°
2026-04-26 23:37 47.29257 -3.87102 34223 ft 477 kts 357°
2026-04-26 23:37 47.35896 -3.86816 34238 ft 477 kts 357°
2026-04-26 23:38 47.42538 -3.86526 34226 ft 477 kts 357°
2026-04-26 23:38 47.49179 -3.86236 34215 ft 477 kts 357°
2026-04-26 23:39 47.55815 -3.85952 34231 ft 477 kts 357°
2026-04-26 23:39 47.62408 -3.85677 34218 ft 476 kts 357°
2026-04-26 23:40 47.69030 -3.85403 34212 ft 476 kts 357°
2026-04-26 23:40 47.74533 -3.85167 34221 ft 476 kts 357°
2026-04-26 23:41 47.81160 -3.84879 34212 ft 476 kts 357°
2026-04-26 23:41 47.87792 -3.84593 34223 ft 476 kts 357°
2026-04-26 23:42 47.94424 -3.84307 34225 ft 476 kts 358°
2026-04-26 23:42 48.04366 -3.83865 34230 ft 477 kts 358°
2026-04-26 23:43 48.11005 -3.83577 34220 ft 477 kts 358°
2026-04-26 23:43 48.17602 -3.83296 34222 ft 477 kts 357°
2026-04-26 23:44 48.24240 -3.83016 34218 ft 477 kts 358°
2026-04-26 23:44 48.30883 -3.82719 34225 ft 477 kts 358°
2026-04-26 23:45 48.37526 -3.82424 34242 ft 477 kts 358°
2026-04-26 23:45 48.44172 -3.82132 34243 ft 477 kts 358°
2026-04-26 23:46 48.50812 -3.81839 34244 ft 477 kts 358°
2026-04-26 23:46 48.57455 -3.81546 34247 ft 477 kts 358°
2026-04-26 23:47 48.64104 -3.81249 34258 ft 477 kts 358°
2026-04-26 23:47 48.70744 -3.80962 34258 ft 477 kts 358°
2026-04-26 23:48 48.77387 -3.80665 34256 ft 477 kts 358°
2026-04-26 23:48 48.83986 -3.80355 34256 ft 477 kts 358°
2026-04-26 23:49 48.90634 -3.80045 34259 ft 477 kts 358°
2026-04-26 23:49 48.97295 -3.79747 34259 ft 477 kts 358°
2026-04-26 23:50 49.03931 -3.79460 34275 ft 477 kts 358°
2026-04-26 23:50 49.10534 -3.79159 34274 ft 477 kts 358°
2026-04-26 23:51 49.17171 -3.78858 34269 ft 477 kts 358°
2026-04-26 23:51 49.23813 -3.78557 34277 ft 477 kts 358°
2026-04-26 23:52 49.30453 -3.78256 34290 ft 477 kts 358°
2026-04-26 23:52 49.37084 -3.77958 34285 ft 477 kts 358°
2026-04-26 23:53 49.43719 -3.77652 34284 ft 476 kts 358°
2026-04-26 23:53 49.50347 -3.77342 34291 ft 476 kts 358°
2026-04-26 23:54 49.56969 -3.77034 34294 ft 476 kts 358°
2026-04-26 23:54 49.63541 -3.76733 34291 ft 475 kts 358°
2026-04-26 23:55 49.70145 -3.76108 34297 ft 478 kts
2026-04-26 23:55 49.76625 -3.73747 34302 ft 478 kts 12°
2026-04-26 23:56 49.83083 -3.71281 34302 ft 478 kts 12°
2026-04-26 23:56 49.89539 -3.68820 34297 ft 477 kts 12°
2026-04-26 23:57 49.95991 -3.66354 34309 ft 477 kts 12°
2026-04-26 23:57 50.02387 -3.63903 34290 ft 476 kts 12°
2026-04-26 23:58 50.08815 -3.61429 34290 ft 476 kts 12°
2026-04-26 23:58 50.15241 -3.58946 34304 ft 476 kts 12°
2026-04-26 23:59 50.21667 -3.56452 34312 ft 475 kts 12°
2026-04-26 23:59 50.28082 -3.53960 34314 ft 474 kts 12°
2026-04-27 00:00 50.34489 -3.51467 34313 ft 474 kts 12°
2026-04-27 00:00 50.40912 -3.49179 34317 ft 472 kts
2026-04-27 00:01 50.47391 -3.47949 34321 ft 471 kts
2026-04-27 00:01 50.53892 -3.46714 34320 ft 470 kts
2026-04-27 00:02 50.60395 -3.45489 34322 ft 470 kts
2026-04-27 00:02 50.66889 -3.44248 34328 ft 469 kts
2026-04-27 00:03 50.73371 -3.42992 34330 ft 469 kts
2026-04-27 00:03 50.79819 -3.41760 34330 ft 468 kts
2026-04-27 00:04 50.86279 -3.40527 34330 ft 467 kts
2026-04-27 00:04 50.92730 -3.39279 34331 ft 466 kts
2026-04-27 00:05 50.99167 -3.38033 34326 ft 465 kts
2026-04-27 00:05 51.05585 -3.36780 34317 ft 465 kts
2026-04-27 00:06 51.12007 -3.35536 34314 ft 464 kts
2026-04-27 00:06 51.18422 -3.34287 34309 ft 464 kts
2026-04-27 00:07 51.24797 -3.33036 34298 ft 464 kts
2026-04-27 00:07 51.31218 -3.31730 34302 ft 465 kts
2026-04-27 00:08 51.37637 -3.30421 34328 ft 465 kts
2026-04-27 00:08 51.44046 -3.29118 34329 ft 464 kts
2026-04-27 00:09 51.50464 -3.27791 34331 ft 464 kts
2026-04-27 00:09 51.56865 -3.26479 34337 ft 464 kts
2026-04-27 00:10 51.63263 -3.25191 34321 ft 462 kts
2026-04-27 00:10 51.69639 -3.23894 34317 ft 462 kts
2026-04-27 00:11 51.76015 -3.22576 34319 ft 461 kts
2026-04-27 00:11 51.82376 -3.21250 34327 ft 460 kts
2026-04-27 00:12 51.88684 -3.19940 34331 ft 459 kts
2026-04-27 00:12 51.95029 -3.18933 34331 ft 457 kts
2026-04-27 00:13 52.01387 -3.18545 34333 ft 456 kts 359°
2026-04-27 00:13 52.07730 -3.18262 34336 ft 455 kts 359°
2026-04-27 00:14 52.14020 -3.17828 34333 ft 455 kts
2026-04-27 00:14 52.20345 -3.17295 34332 ft 455 kts
2026-04-27 00:15 52.26668 -3.16776 34341 ft 454 kts 360°
2026-04-27 00:15 52.32977 -3.16309 34334 ft 454 kts 360°
2026-04-27 00:16 52.39286 -3.15837 34327 ft 453 kts 360°
2026-04-27 00:16 52.45588 -3.15338 34329 ft 453 kts
2026-04-27 00:17 52.51883 -3.14840 34335 ft 453 kts 360°
2026-04-27 00:17 52.58134 -3.14361 34330 ft 452 kts 359°
2026-04-27 00:18 52.64426 -3.13873 34327 ft 452 kts 360°
2026-04-27 00:18 52.70701 -3.13003 34320 ft 455 kts
2026-04-27 00:19 52.76688 -3.09487 34330 ft 459 kts 23°
2026-04-27 00:19 52.82464 -3.04957 34323 ft 459 kts 23°
2026-04-27 00:20 52.88246 -3.00434 34308 ft 460 kts 23°
2026-04-27 00:20 52.94188 -2.96549 34304 ft 459 kts 17°
2026-04-27 00:21 53.00202 -2.92881 34315 ft 460 kts 17°
2026-04-27 00:21 53.06197 -2.89142 34313 ft 462 kts 21°
2026-04-27 00:22 53.11712 -2.83676 34320 ft 466 kts 32°
2026-04-27 00:22 53.14386 -2.80624 34087 ft 465 kts 32°
2026-04-27 00:22 53.17062 -2.77574 33289 ft 466 kts 32°
2026-04-27 00:23 53.19733 -2.74566 32694 ft 462 kts 32°
2026-04-27 00:23 53.22412 -2.71661 32150 ft 457 kts 27°
2026-04-27 00:23 53.25166 -2.69066 31806 ft 453 kts 26°
2026-04-27 00:23 53.27926 -2.66536 31546 ft 452 kts 26°
2026-04-27 00:24 53.30695 -2.64044 31293 ft 450 kts 26°
2026-04-27 00:24 53.33452 -2.61580 31044 ft 449 kts 26°
2026-04-27 00:24 53.36198 -2.59118 30797 ft 447 kts 26°
2026-04-27 00:24 53.38930 -2.56649 30552 ft 445 kts 26°
2026-04-27 00:25 53.41654 -2.54172 30295 ft 446 kts 26°
2026-04-27 00:25 53.44378 -2.51682 30003 ft 445 kts 26°
2026-04-27 00:25 53.47087 -2.49200 29719 ft 443 kts 26°
2026-04-27 00:25 53.49783 -2.46727 29434 ft 440 kts 26°
2026-04-27 00:26 53.52464 -2.44264 29157 ft 438 kts 26°
2026-04-27 00:26 53.55128 -2.41814 28879 ft 435 kts 26°
2026-04-27 00:26 53.57773 -2.39378 28596 ft 433 kts 26°
2026-04-27 00:26 53.60404 -2.36947 28343 ft 430 kts 26°
2026-04-27 00:27 53.62985 -2.34554 28075 ft 428 kts 26°
2026-04-27 00:27 53.65585 -2.32139 27804 ft 425 kts 26°
2026-04-27 00:27 53.68170 -2.29736 27545 ft 423 kts 26°
2026-04-27 00:27 53.70738 -2.27353 27283 ft 421 kts 26°
2026-04-27 00:28 53.73295 -2.24978 27035 ft 418 kts 26°
2026-04-27 00:28 53.75829 -2.22624 26769 ft 414 kts 26°
2026-04-27 00:28 53.78342 -2.20284 26524 ft 411 kts 26°
2026-04-27 00:28 53.80839 -2.17957 26278 ft 409 kts 26°
2026-04-27 00:29 53.83325 -2.15642 26022 ft 406 kts 26°
2026-04-27 00:29 53.85795 -2.13338 25774 ft 404 kts 27°
2026-04-27 00:29 53.88249 -2.11045 25529 ft 402 kts 27°
2026-04-27 00:29 53.90696 -2.08754 25286 ft 400 kts 26°
2026-04-27 00:30 53.92311 -2.07240 25128 ft 400 kts 26°
2026-04-27 00:30 53.94748 -2.04954 24895 ft 399 kts 26°
2026-04-27 00:30 53.97169 -2.02677 24627 ft 394 kts 27°
2026-04-27 00:30 53.99557 -2.00429 24201 ft 391 kts 27°
2026-04-27 00:31 54.01926 -1.98193 23694 ft 389 kts 27°
2026-04-27 00:31 54.04288 -1.95959 23200 ft 386 kts 27°
2026-04-27 00:31 54.06625 -1.93746 22729 ft 383 kts 27°
2026-04-27 00:31 54.08943 -1.91553 22262 ft 379 kts 27°
2026-04-27 00:32 54.11242 -1.89376 21778 ft 377 kts 27°
2026-04-27 00:32 54.13572 -1.87375 21305 ft 373 kts 20°
2026-04-27 00:32 54.16036 -1.86106 20836 ft 368 kts
2026-04-27 00:32 54.18546 -1.85324 20368 ft 365 kts
2026-04-27 00:33 54.21037 -1.84552 19907 ft 363 kts
2026-04-27 00:33 54.23526 -1.83773 19459 ft 362 kts
2026-04-27 00:33 54.25965 -1.83005 18996 ft 360 kts
2026-04-27 00:33 54.28426 -1.82231 18530 ft 359 kts
2026-04-27 00:34 54.30875 -1.81464 18043 ft 357 kts
2026-04-27 00:34 54.33313 -1.80699 17584 ft 354 kts
2026-04-27 00:34 54.35726 -1.79938 17144 ft 351 kts
2026-04-27 00:34 54.38119 -1.79184 16705 ft 349 kts
2026-04-27 00:35 54.40502 -1.78431 16276 ft 347 kts
2026-04-27 00:35 54.42894 -1.77671 15607 ft 353 kts
2026-04-27 00:35 54.45271 -1.76916 15354 ft 341 kts
2026-04-27 00:35 54.47585 -1.76182 15019 ft 336 kts
2026-04-27 00:36 54.49909 -1.75449 13868 ft 345 kts
2026-04-27 00:36 54.52276 -1.74699 12823 ft 346 kts
2026-04-27 00:36 54.54608 -1.73959 11961 ft 342 kts
2026-04-27 00:36 54.56948 -1.73756 11065 ft 334 kts 350°
2026-04-27 00:37 54.59162 -1.74691 10492 ft 319 kts 340°
2026-04-27 00:37 54.61226 -1.75723 10247 ft 300 kts 341°
2026-04-27 00:37 54.63197 -1.76699 9797 ft 290 kts 341°
2026-04-27 00:37 54.65136 -1.77661 9677 ft 291 kts 341°
2026-04-27 00:38 54.67093 -1.78639 9247 ft 293 kts 341°
2026-04-27 00:38 54.69035 -1.79611 8791 ft 288 kts 341°
2026-04-27 00:38 54.70951 -1.80570 8166 ft 284 kts 341°
2026-04-27 00:38 54.72832 -1.81515 7640 ft 279 kts 341°
2026-04-27 00:39 54.74687 -1.82447 7149 ft 276 kts 341°
2026-04-27 00:39 54.76523 -1.83373 6634 ft 273 kts 341°
2026-04-27 00:39 54.78347 -1.84293 5948 ft 273 kts 341°
2026-04-27 00:39 54.80154 -1.85205 5355 ft 268 kts 341°
2026-04-27 00:40 54.81932 -1.86105 4847 ft 265 kts 342°
2026-04-27 00:40 54.83694 -1.86996 4350 ft 263 kts 342°
2026-04-27 00:40 54.85444 -1.87879 3880 ft 260 kts 342°
2026-04-27 00:40 54.87084 -1.88705 3752 ft 236 kts 342°
2026-04-27 00:41 54.88603 -1.89467 3707 ft 222 kts 342°
2026-04-27 00:41 54.90075 -1.90208 3633 ft 219 kts 342°
2026-04-27 00:41 54.91537 -1.90951 3542 ft 218 kts 341°
2026-04-27 00:41 54.92995 -1.91695 3443 ft 218 kts 342°
2026-04-27 00:42 54.94476 -1.92300 3208 ft 220 kts 354°
2026-04-27 00:42 54.95973 -1.92056 3040 ft 214 kts 14°
2026-04-27 00:42 54.97278 -1.90988 2867 ft 205 kts 34°
2026-04-27 00:42 54.98280 -1.89292 2684 ft 196 kts 52°
2026-04-27 00:43 54.98905 -1.87302 2412 ft 184 kts 63°
2026-04-27 00:43 54.99424 -1.85359 2181 ft 171 kts 63°
2026-04-27 00:43 54.99910 -1.83544 1952 ft 159 kts 62°
2026-04-27 00:43 55.00368 -1.81832 1743 ft 154 kts 62°
2026-04-27 00:44 55.00814 -1.80163 1528 ft 151 kts 62°
2026-04-27 00:44 55.01256 -1.78506 1334 ft 150 kts 63°
2026-04-27 00:44 55.01694 -1.76857 1101 ft 150 kts 63°
2026-04-27 00:44 55.02138 -1.75222 895 ft 149 kts 64°
2026-04-27 00:45 55.02568 -1.73587 684 ft 149 kts 66°
2026-04-27 00:45 55.03003 -1.71960 514 ft 147 kts 65°
2026-04-27 00:45 55.03430 -1.70347 276 ft 145 kts 66°
2026-04-27 00:45 55.03776 -1.69037 252 ft 80 kts 64°
2026-04-27 00:46 55.03915 -1.68521 254 ft 35 kts 65°
2026-04-27 00:46 55.04020 -1.68333 251 ft 11 kts 32°
2026-04-27 00:46 55.04126 -1.68231 245 ft 25 kts 355°
2026-04-27 00:46 55.04159 -1.68301 243 ft 6 kts 232°
2026-04-27 00:47 55.04129 -1.68380 246 ft 17 kts 246°
2026-04-27 00:47 55.04036 -1.68761 253 ft 49 kts 245°
2026-04-27 00:47 55.03862 -1.69416 256 ft 64 kts 245°
2026-04-27 00:47 55.03773 -1.70094 262 ft 54 kts 271°
2026-04-27 00:48 55.03758 -1.70424 264 ft 7 kts 207°
2026-04-27 00:48 55.03714 -1.70432 263 ft 4 kts 212°
2026-04-27 00:48 55.03704 -1.70482 264 ft 8 kts 252°
2026-04-27 00:48 55.03698 -1.70561 265 ft 5 kts 264°
2026-04-27 00:49 55.03697 -1.70571 265 ft 0 kts 264°